Flag for Portugal Weather past 2 weeks in Lisbon, Portugal

Now
70 °F

Passing clouds.


Feels Like: 70 °F
Forecast: 63 / 80 °F
Wind: 10 mph from Northwest

Location: Lisbon Portela Airport

Current Time: Jun 30, 2015 at 12:54:19 AM

Latest Report: Jun 30, 2015 at 12:30 AM


Visibility: N/A

Pressure: 29.98 "Hg

Humidity: 73%

Dew point: 61 °F

Location of LisbonLocation

Historic Weather in Lisbon — Graph

°F

Lisbon temperature yesterday

Maximum temperature yesterday: 95 °F (at 3:00 PM)
Minimum temperature yesterday: 64 °F (at 2:00 AM)
Average temperature yesterday: 77 °F

Past Weeks' High & Low Weather Summary

 TemperatureHumidityPressure
High95 °F (Jun 27, 3:00 PM)94% (Jun 15, 3:00 AM)30.21 "Hg (Jun 15, 3:00 AM)
Low55 °F (Jun 15, 5:30 AM)15% (Jun 29, 5:30 PM)29.95 "Hg (Jun 20, 2:30 AM)
Average73 °F57%30.07 "Hg
* Reported Jun 14 11:00 PM — Jun 29 11:30 PM, Lisbon, Weather by CustomWeather, © 2015

Note: Actual official high and low records may vary slightly from our data, if they occured in-between our weather recording intervals... More about our weather records

Advertising

Lisbon weather history for previous 24 hours

 ConditionsComfort  
Time TempWeatherWind HumidityBarometerVisibility
11:30 PM
Mon, Jun 29
68 °FPassing clouds.12 mph83%29.98 "HgN/A
10:30 PM72 °FClear.12 mph69%29.98 "Hg10 mi
10:00 PM73 °FPassing clouds.13 mph65%29.98 "HgN/A
9:30 PM73 °FPassing clouds.9 mph65%29.98 "HgN/A
9:00 PM75 °FPassing clouds.8 mph61%29.98 "HgN/A
8:30 PM79 °FSunny.3 mph54%29.98 "Hg10 mi
8:00 PM81 °FSunny.12 mph51%29.98 "Hg10 mi
7:30 PM82 °FSunny.10 mph45%29.98 "Hg10 mi
7:00 PM84 °FSunny.10 mph40%29.95 "Hg10 mi
6:30 PM88 °FPassing clouds.12 mph38%29.95 "HgN/A
6:00 PM91 °FPassing clouds.10 mph24%29.98 "HgN/A
5:30 PM93 °FSunny.10 mph15%29.98 "Hg10 mi
5:00 PM93 °FSunny.9 mph17%29.98 "Hg10 mi
4:30 PM93 °FSunny.10 mph17%29.98 "Hg10 mi
4:00 PM93 °FPassing clouds.9 mph16%29.98 "HgN/A
3:30 PM93 °FPassing clouds.8 mph23%29.98 "HgN/A
3:00 PM95 °FSunny.7 mph26%30.01 "Hg10 mi
2:30 PM91 °FPassing clouds.8 mph32%30.01 "HgN/A
2:00 PM91 °FPassing clouds.6 mph32%30.01 "HgN/A
1:30 PM90 °FPassing clouds.7 mph33%30.01 "HgN/A
1:00 PM88 °FPassing clouds.6 mph40%30.01 "HgN/A
12:30 PM86 °FPassing clouds.6 mph43%30.04 "HgN/A
12:00 PM88 °FSunny.3 mph40%30.04 "Hg10 mi
11:30 AM84 °FSunny.3 mph43%30.04 "Hg10 mi
11:00 AM81 °FSunny.5 mph54%30.04 "Hg10 mi
10:30 AM77 °FPassing clouds.7 mph57%30.04 "HgN/A
10:00 AM75 °FPassing clouds.8 mph61%30.04 "HgN/A
9:30 AM73 °FPassing clouds.5 mph65%30.04 "HgN/A
9:00 AM70 °FSunny.6 mph69%30.04 "Hg10 mi
8:30 AM68 °FSunny.6 mph73%30.01 "Hg10 mi
8:00 AM66 °FPassing clouds.8 mph73%30.01 "HgN/A
7:30 AM64 °FPassing clouds.9 mph78%30.01 "HgN/A
7:00 AM64 °FClear.8 mph78%30.01 "Hg10 mi
6:30 AM64 °FClear.10 mph78%30.01 "Hg10 mi
6:00 AM64 °FClear.9 mph73%30.01 "Hg10 mi
5:30 AM64 °FClear.12 mph73%30.01 "Hg10 mi
4:30 AM66 °FClear.10 mph68%30.01 "Hg10 mi
4:00 AM66 °FClear.10 mph68%30.01 "Hg10 mi
3:30 AM68 °FClear.9 mph60%30.04 "Hg10 mi
3:00 AM66 °FClear.10 mph68%30.04 "Hg10 mi
2:30 AM66 °FClear.8 mph68%30.04 "Hg10 mi
2:00 AM64 °FClear.12 mph78%30.04 "Hg10 mi
1:30 AM66 °FPassing clouds.8 mph68%30.04 "HgN/A
1:00 AM66 °FClear.9 mph68%30.04 "Hg10 mi
12:30 AM68 °FPassing clouds.8 mph60%30.07 "HgN/A
12:00 AM68 °FClear.10 mph60%30.07 "Hg10 mi
Weather by CustomWeather, © 2015

See weather overviewHow to use our weather pages